BIROS

Last updated on Tue Oct 15 2024 00:02:24 GMT+0000 (Coordinated Universal Time)

1 41604U 16040F 24288.50881011 .00025413 00000+0 55894-3 0 9992 2 41604 97.1156 313.8966 0006788 350.0748 10.0366 15.43946081462557
UTC large
Height (km)
Speed (km/s)
/
Latitude / Longitude
Inclination (degrees)
Orbital Period (minutes)
Azimuth
Elevation
Range (km)
Doppler Factor

Next 0 passes for location: London (51.5072 / 0.1276)

Sorry there are no passes over London.